Powrót do katalogu

STARLINK-35397

AktywnyŁącznośćVLEO
NORAD 65825·PAYLOAD·🇺🇸 United States

Wystrzelony Sep 29, 2025 z Vandenberg Space Force Base

Loading…

Następne Przeloty (najbliższe 24 godziny)

TLE

ŚwieżeSource: CelesTrak SupGP

Epoka: Sep 14, 2026, 21:04 UTC

1 65825C 25221C   26257.87826389  .00032042  00000+0  94697-3 0  2576
2 65825  53.1582 285.7928 0001173  84.7921 233.4508 15.34365159    14

Śledź STARLINK-35397 w czasie rzeczywistym z AllMySat

Download on the App Store